[[{"header":{"parameterUnit":"m.s-1","parameterCategory":1,"la1":30.2991,"la2":30.254,"lo1":-89.0895,"lo2":-89.0444,"dy":0.0017,"dx":0.0017,"nx":28,"ny":28,"refTime":"2024-08-19T03:00:00:Z","depth":0,"parameterNumber":2,"parameterNumberName":"U-component_of_WINDS"},"data":[0,0,0,0,0,0,0,0,0,0,0,0,0,0,0,0,0,0,0,0,0,0,0,0,0,0,0,0,0,0,0,0,0,0,0,0,0,0,0,0,0,0,0,0,0,0,0,0,0,0,0,0,0,0,0,0,0,0,2.5633,2.5633,0,2.5645,2.5645,2.5645,2.5526,2.5523,2.552,2.5517,2.5534,2.5537,2.554,0,0,0,0,0,0,0,0,0,0,0,0,0,2.5515,2.5518,2.5633,2.5633,2.5634,2.5645,2.5645,2.5646,2.5527,2.5523,2.5519,2.5515,2.5532,2.5537,2.5541,0,0,0,0,0,0,0,0,0,0,0,0,0,2.5551,2.5519,2.5633,2.5576,2.5571,2.5645,2.5645,2.5646,2.5528,2.5523,2.5518,2.5513,2.5531,2.5536,2.5541,2.5673,0,0,2.5558,2.556,0,0,0,0,0,0,0,0,2.5549,2.5555,2.5584,2.558,2.5574,2.5579,2.561,2.5655,2.5529,2.5544,2.5516,2.5511,2.5553,2.5556,2.5569,2.5674,2.5675,2.5558,2.5561,2.5564,2.5565,0,0,0,0,0,0,0,2.5547,2.5554,2.5638,2.5585,2.5579,2.5552,2.5551,2.5618,2.5576,2.5542,2.5534,2.5537,2.5549,2.5565,2.5569,2.5675,2.5558,2.5563,2.5566,2.5568,2.5893,2.5898,0,0,0,0,0,0,2.5551,2.5553,2.5638,2.5638,2.5549,2.5558,2.5557,2.5583,2.5575,2.5569,2.5541,2.5531,2.5558,2.5563,2.5569,2.5726,2.5563,2.5568,2.5571,2.5888,2.5894,2.59,0,0,0,0,0,0,2.5549,2.556,2.5637,2.5593,2.5601,2.5565,2.5595,2.5586,2.56,2.5574,2.5567,2.5564,2.5554,2.5562,2.5649,2.5725,2.5571,2.5576,2.5881,2.589,2.5897,2.6039,0,0,0,0,0,0,2.5546,2.556,2.5607,2.5595,2.5604,2.5715,2.5599,2.5589,2.5609,2.5597,2.5593,2.5588,2.5551,2.5642,2.5654,2.5729,2.558,2.5874,2.5885,2.5895,2.6027,2.6051,2.6071,0,0,0,0,0,2.5542,2.5647,2.561,2.5621,2.5663,2.5719,2.5725,2.5678,2.5616,2.5665,2.5649,2.5588,2.5714,2.5652,2.5665,2.5742,2.5869,2.5882,2.5894,2.6017,2.6046,2.6071,0,0,0,0,0,0,2.567,2.5644,2.5603,2.5707,2.5716,2.5699,2.5759,2.571,2.5738,2.5725,2.5668,2.5669,2.5767,2.5763,2.5693,2.5872,2.5781,2.5797,2.5871,2.5898,2.5919,2.5919,2.5584,0,0,0,0,0,2.571,2.5756,2.5732,2.5826,2.5833,2.5796,2.5819,2.5783,2.5791,2.5794,2.5784,2.5796,2.5839,2.5868,2.5905,2.6026,2.6026,2.6086,2.6108,2.6126,2.6141,2.6209,2.6237,2.594,2.594,2.594,0,0,2.5793,2.5785,2.5818,2.5851,2.5854,2.5907,2.58,2.5858,2.5898,2.5804,2.5886,2.5879,2.5889,2.5995,2.6041,2.5995,2.6223,2.6142,2.6157,2.6161,2.6225,2.6253,2.6278,2.5949,2.5947,2.5946,0,0,2.5972,2.5969,2.6048,2.6054,2.606,2.6035,2.6055,2.6046,2.6038,2.612,2.6052,2.6098,2.6171,2.6182,2.6198,2.6385,2.6332,2.6399,2.6514,2.6581,2.6604,2.6625,2.6695,2.672,2.6413,2.6414,2.6414,0,2.6075,2.6149,2.6096,2.616,2.6179,2.6096,2.6178,2.6187,2.6206,2.6222,2.6169,2.6262,2.6262,2.6372,2.6418,2.6432,2.6455,2.6399,2.6605,2.6625,2.6643,2.671,2.6736,2.6422,2.6421,2.642,2.6419,0,2.6278,2.633,2.6394,2.6414,2.644,2.6513,2.6474,2.6507,2.6469,2.6452,2.6538,2.6536,2.6573,2.6596,2.656,2.6702,2.6673,2.6614,2.6522,2.6681,2.6742,2.6767,2.6434,2.6431,2.6429,2.6426,0,0,2.6536,2.6527,2.6552,2.6562,2.6564,2.6605,2.6676,2.6711,2.6743,2.6759,2.682,2.6885,2.6832,2.6849,2.6814,2.6872,2.7026,2.6806,2.6806,2.685,2.7186,2.7233,2.7262,2.699,2.6995,2.6998,2.7186,0,2.6713,2.6831,2.6788,2.6911,2.6961,2.6885,2.6947,2.6958,2.6944,2.6986,2.6971,2.702,2.6943,2.6954,2.7008,2.6996,2.7093,2.6981,2.7049,2.7052,2.7051,2.7294,2.7342,2.752,2.721,2.7214,2.7217,0,2.6934,2.696,2.7088,2.7085,2.7104,2.7161,2.7192,2.7233,2.7244,2.723,2.7252,2.7205,2.7278,2.7185,2.7287,2.7212,2.7238,2.7236,2.7242,2.7248,2.7145,2.7309,2.7575,2.7603,2.7253,2.725,2.7248,0,2.7114,2.718,2.7266,2.7277,2.7274,2.7317,2.7318,2.7324,2.735,2.7378,2.7394,2.7431,2.7452,2.7483,2.7449,2.7384,2.7558,2.7461,2.7551,2.7552,2.7592,2.759,2.7868,2.7605,2.7605,2.7604,2.7604,0,2.7316,2.7399,2.7347,2.7401,2.7492,2.7443,2.7535,2.7528,2.7535,2.7588,2.7524,2.7576,2.7527,2.7575,2.7549,2.764,2.7649,2.7642,2.7635,2.7649,2.7651,2.7667,2.7654,2.7611,2.761,2.7608,2.7607,0,2.7533,2.7501,2.7591,2.7582,2.7582,2.765,2.7643,2.7694,2.7676,2.7745,2.7758,2.7731,2.7785,2.7754,2.7808,2.7791,2.791,2.7884,2.7906,2.79,2.7993,2.7986,2.8293,2.8332,2.8042,2.8044,2.8047,0,2.7665,2.7727,2.7725,2.7755,2.7761,2.7811,2.7837,2.7791,2.7822,2.7841,2.7891,2.7939,2.7975,2.8066,2.8053,2.8096,2.8072,2.8177,2.8078,2.8092,2.8078,2.8076,2.8083,2.8197,2.8201,2.8203,2.8206,0,2.7905,2.7887,2.7926,2.7962,2.7995,2.802,2.8041,2.807,2.8025,2.8063,2.8117,2.8146,2.8203,2.8253,2.829,2.8294,2.8245,2.8237,2.826,2.8277,2.8288,2.8287,2.7963,2.823,2.8228,2.8226,2.8225,2.8224,2.8085,2.8138,2.8146,2.8193,2.8204,2.8226,2.8274,2.8263,2.8306,2.8348,2.832,2.8385,2.8398,2.8443,2.8454,2.8506,2.8465,2.8498,2.8507,2.8517,2.8531,2.8278,2.8513,2.8512,2.8511,2.8511,2.851,0,2.8325,2.8327,2.837,2.8402,2.844,2.8388,2.8409,2.8445,2.8503,2.8519,2.8556,2.8621,2.867,2.8661,2.8707,2.8751,2.873,2.8764,2.8762,2.8765,2.8564,2.854,2.8781,2.8781,2.8781,2.8781,2.8781,2.8781,2.8454,2.8542,2.8526,2.862,2.8621,2.8683,2.8701,2.8722,2.8735,2.8809,2.8849,2.8843,2.8851,2.8897,2.8941,2.8937,2.8959,2.9003,2.8992,2.8805,2.8778,2.8753,2.873,2.9007,2.9008,2.9188,2.919,2.9191]},{"header":{"parameterUnit":"m.s-1","parameterCategory":1,"la1":30.2991,"la2":30.254,"lo1":-89.0895,"lo2":-89.0444,"dy":0.0017,"dx":0.0017,"nx":28,"ny":28,"refTime":"2024-08-19T03:00:00:Z","depth":0,"parameterNumber":3,"parameterNumberName":"V-component_of_WINDS"},"data":[0,0,0,0,0,0,0,0,0,0,0,0,0,0,0,0,0,0,0,0,0,0,0,0,0,0,0,0,0,0,0,0,0,0,0,0,0,0,0,0,0,0,0,0,0,0,0,0,0,0,0,0,0,0,0,0,0,0,-1.5583,-1.5584,0,-1.5631,-1.5631,-1.5632,-1.568,-1.5681,-1.5681,-1.5682,-1.5729,-1.573,-1.5731,0,0,0,0,0,0,0,0,0,0,0,0,0,-1.5534,-1.5535,-1.5583,-1.5584,-1.5585,-1.5631,-1.5632,-1.5632,-1.568,-1.5681,-1.5682,-1.5682,-1.5729,-1.573,-1.5731,0,0,0,0,0,0,0,0,0,0,0,0,0,-1.5566,-1.5535,-1.5583,-1.5614,-1.5617,-1.5631,-1.5632,-1.5632,-1.568,-1.5681,-1.5682,-1.5683,-1.5729,-1.573,-1.5731,-1.5717,0,0,-1.5734,-1.5734,0,0,0,0,0,0,0,0,-1.5564,-1.5568,-1.5609,-1.5612,-1.5616,-1.5651,-1.5632,-1.5661,-1.568,-1.5656,-1.5682,-1.5683,-1.5702,-1.5706,-1.5712,-1.572,-1.5722,-1.5734,-1.5735,-1.5735,-1.5735,0,0,0,0,0,0,0,-1.5562,-1.5566,-1.5602,-1.5609,-1.5614,-1.5626,-1.5631,-1.5637,-1.5673,-1.5658,-1.5662,-1.5667,-1.5704,-1.5711,-1.5714,-1.5722,-1.5734,-1.5735,-1.5735,-1.5736,-1.5723,-1.5722,0,0,0,0,0,0,-1.5555,-1.5564,-1.5601,-1.5604,-1.5592,-1.5626,-1.5632,-1.5638,-1.5673,-1.5679,-1.5666,-1.5669,-1.5709,-1.5713,-1.5716,-1.5704,-1.5735,-1.5736,-1.5736,-1.5724,-1.5723,-1.5722,0,0,0,0,0,0,-1.5554,-1.5558,-1.5599,-1.5585,-1.5591,-1.5625,-1.5632,-1.5639,-1.5646,-1.5679,-1.5686,-1.5666,-1.571,-1.5714,-1.5717,-1.5706,-1.5736,-1.5737,-1.5725,-1.5724,-1.5722,-1.5678,0,0,0,0,0,0,-1.5552,-1.5557,-1.5552,-1.5584,-1.5591,-1.5599,-1.5632,-1.5639,-1.5648,-1.5652,-1.5681,-1.5687,-1.5711,-1.5715,-1.5718,-1.5708,-1.5738,-1.5726,-1.5724,-1.5723,-1.5681,-1.5675,-1.5671,0,0,0,0,0,-1.555,-1.5537,-1.5552,-1.5556,-1.5586,-1.5598,-1.5603,-1.5631,-1.5646,-1.5642,-1.5664,-1.5686,-1.5707,-1.5715,-1.5719,-1.5708,-1.5727,-1.5725,-1.5723,-1.5683,-1.5676,-1.5671,0,0,0,0,0,0,-1.5502,-1.5542,-1.5558,-1.5555,-1.5573,-1.5607,-1.5602,-1.5623,-1.5636,-1.564,-1.5674,-1.568,-1.5679,-1.5694,-1.5703,-1.5698,-1.572,-1.5719,-1.5689,-1.5683,-1.5678,-1.5674,-1.5739,0,0,0,0,0,-1.5491,-1.5498,-1.5532,-1.5526,-1.5535,-1.5566,-1.5573,-1.5593,-1.5613,-1.5621,-1.5643,-1.5661,-1.5672,-1.5678,-1.5689,-1.5683,-1.5691,-1.5678,-1.5673,-1.5669,-1.5667,-1.5666,-1.5661,-1.5715,-1.5715,-1.5715,0,0,-1.5468,-1.5491,-1.5493,-1.5517,-1.5533,-1.554,-1.5572,-1.5578,-1.5583,-1.5622,-1.5626,-1.5643,-1.5665,-1.5664,-1.5665,-1.5676,-1.5654,-1.5666,-1.5662,-1.5663,-1.5664,-1.5659,-1.5654,-1.5714,-1.5714,-1.5714,0,0,-1.543,-1.5448,-1.5445,-1.5462,-1.5486,-1.5508,-1.5507,-1.5538,-1.5551,-1.5556,-1.5586,-1.5593,-1.561,-1.5626,-1.5636,-1.5606,-1.5627,-1.5608,-1.5582,-1.5582,-1.5577,-1.5574,-1.5564,-1.556,-1.5607,-1.5607,-1.5607,0,-1.5399,-1.541,-1.5441,-1.5446,-1.5456,-1.5492,-1.549,-1.5504,-1.5531,-1.5538,-1.5551,-1.5575,-1.5592,-1.5596,-1.5589,-1.5595,-1.5596,-1.5605,-1.5575,-1.5572,-1.5569,-1.5561,-1.5557,-1.5604,-1.5604,-1.5605,-1.5605,0,-1.5371,-1.5379,-1.5374,-1.54,-1.541,-1.5411,-1.5443,-1.5449,-1.5469,-1.5489,-1.5495,-1.5517,-1.5535,-1.5537,-1.5556,-1.5544,-1.5551,-1.5569,-1.5592,-1.5561,-1.5554,-1.5551,-1.5601,-1.5602,-1.5602,-1.5603,0,0,-1.5303,-1.5348,-1.5346,-1.5359,-1.539,-1.5396,-1.5399,-1.5417,-1.5423,-1.544,-1.5444,-1.5459,-1.5477,-1.5488,-1.551,-1.5509,-1.5485,-1.5527,-1.5528,-1.552,-1.5475,-1.5461,-1.5457,-1.55,-1.5499,-1.5499,-1.5473,0,-1.5271,-1.528,-1.5309,-1.5308,-1.5317,-1.5352,-1.5355,-1.5374,-1.5393,-1.5403,-1.5425,-1.5435,-1.5457,-1.5465,-1.5465,-1.5488,-1.5477,-1.549,-1.5505,-1.5505,-1.5498,-1.5453,-1.5438,-1.5413,-1.547,-1.547,-1.547,0,-1.5235,-1.5252,-1.5252,-1.5285,-1.5289,-1.5291,-1.5311,-1.532,-1.5343,-1.5357,-1.5371,-1.5395,-1.5401,-1.5422,-1.5432,-1.544,-1.5448,-1.546,-1.546,-1.5463,-1.5485,-1.5455,-1.5405,-1.5402,-1.5465,-1.5465,-1.5466,0,-1.5187,-1.5209,-1.5213,-1.5223,-1.526,-1.5262,-1.5277,-1.5301,-1.5311,-1.5328,-1.5335,-1.5352,-1.5362,-1.5375,-1.5403,-1.5416,-1.541,-1.5433,-1.5423,-1.5422,-1.542,-1.542,-1.5371,-1.5424,-1.5424,-1.5424,-1.5424,0,-1.5149,-1.5148,-1.5193,-1.5195,-1.5196,-1.5229,-1.5229,-1.5248,-1.5269,-1.5276,-1.5307,-1.5313,-1.535,-1.5361,-1.5383,-1.5388,-1.5392,-1.5404,-1.541,-1.5402,-1.54,-1.5408,-1.541,-1.5423,-1.5423,-1.5423,-1.5423,0,-1.5095,-1.5125,-1.5131,-1.5167,-1.5176,-1.5175,-1.5205,-1.5209,-1.5231,-1.5239,-1.5243,-1.5278,-1.5292,-1.5322,-1.5343,-1.5359,-1.5359,-1.5369,-1.5351,-1.5355,-1.5343,-1.5344,-1.5298,-1.5294,-1.5348,-1.5347,-1.5347,0,-1.5069,-1.507,-1.5105,-1.5113,-1.5127,-1.5138,-1.5149,-1.5182,-1.5192,-1.5219,-1.522,-1.5236,-1.5252,-1.5272,-1.5299,-1.5317,-1.5328,-1.5311,-1.5331,-1.5323,-1.5329,-1.5329,-1.533,-1.5306,-1.5306,-1.5305,-1.5305,0,-1.502,-1.5035,-1.5049,-1.5068,-1.508,-1.5097,-1.5115,-1.5119,-1.5157,-1.5166,-1.5182,-1.5193,-1.5217,-1.5233,-1.5255,-1.5271,-1.5294,-1.5298,-1.5297,-1.5288,-1.5278,-1.5285,-1.534,-1.5299,-1.53,-1.53,-1.53,-1.5301,-1.498,-1.4983,-1.5009,-1.5024,-1.5041,-1.5058,-1.5064,-1.5088,-1.5101,-1.5123,-1.5142,-1.5155,-1.518,-1.5212,-1.5227,-1.5238,-1.525,-1.5247,-1.5247,-1.5246,-1.5243,-1.5276,-1.5242,-1.5242,-1.5243,-1.5243,-1.5243,0,-1.4934,-1.4953,-1.4966,-1.4991,-1.5003,-1.5025,-1.5047,-1.5055,-1.5067,-1.5088,-1.5103,-1.5121,-1.5138,-1.5167,-1.5186,-1.519,-1.5201,-1.5194,-1.5194,-1.5198,-1.5231,-1.5231,-1.5184,-1.5184,-1.5184,-1.5184,-1.5184,-1.5184,-1.4911,-1.4917,-1.4936,-1.4951,-1.497,-1.4985,-1.4995,-1.5011,-1.5029,-1.5048,-1.5062,-1.5081,-1.5106,-1.5127,-1.5144,-1.5152,-1.5158,-1.5147,-1.5159,-1.5189,-1.5195,-1.52,-1.52,-1.5148,-1.5148,-1.5124,-1.5124,-1.5124]}]]